STARLINK-31905, 59896

Orbit data source: Space-Track

STARLINK-31905, 59896 is a payload satellite owned by SpaceX/Seattle (US) in LEO that was launched on Tue, 28 May 2024 UTC via an FALCON 9 launch vehicle from the Air Force Eastern Test Range (AFETR). Payload-class satellites include a variety of spacecraft equipped with specific instruments for various scientific and technological missions. These include communications satellites like Starlink; space stations such as the ISS; scientific satellites like the Hubble; Earth observation satellites from companies like Planet Labs, Umbra, and HawkEye 360; GPS; miniature CubeSats for education and research; and military/defense satellites.

Loading next visibility...
Identifier
59896, 2024-100M
Orbit
LEO
Country
Flag of USUS
Related business
Manufacturer
SpaceX/Seattle
Mission
Operational spacecraft
Bus & Motor
STARLINK V2M, Unknown motor
Mass
730 kg wet, ~700 kg dry
Launch date (UTC)
2024-05-28 (2 years ago)
Launch vehicle
FALCON 9
Launch site
Air Force Eastern Test Range (AFETR)
Object type
Payload
Rocket body
Debris
Shape & HBR
Unknown shape, 17.7 m
Radar Cross Section
Large (>1 m²)

Expand to show TLE details & history
Last TLE update: 8 hours ago

TLE from 8 hours ago
0 STARLINK-31905
1 59896U 24100M   26036.44103351  .00001032  00000-0  47027-4 0  9992
2 59896  43.0035 304.1689 0001020 284.2366  75.8372 15.27581896 96266
Epoch: 2026-02-05T10:35Z
TLE epoch observation values (Epoch: 2026-02-05T10:35:05.295Z)
Latitude
-0.00003°
Longitude
9.80358°
Altitude
482.648 km
Speed
7.626 km/s
True Right ascension
20h 16m 40s
True Declination
0° 00' 00"
Sunlit
Object was in daylight at epoch
Visualization orbit readout
Latitude
Unknown
Longitude
Unknown
Altitude
Unknown
Speed
Unknown
Apparent Right ascension
Unknown
Apparent Declination
Unknown
Sunlit
N/A
Visualization observer readout
Local Sidereal Time
20:16:50
Azimuth
Unknown
Elevation
Unknown
Doppler factor
Unknown
Orbital elements
Apogee altitude
485.688 km
Perigee altitude
484.288 km
Semi-major axis
6,863.125 km
Eccentricity
0.0001
Inclination
43.0035°
RAAN
304.1689°
Arg. of periapsis
284.2366°
True anomaly
75.84853°
Mean anomaly
75.8372°
Eccentric anomaly
75.84287°
Mean motion
3.81734 °/min
Orbital period
94.31 mins
BSTAR
0.000047027
Loading maneuver chart data...
Computing Atmospheric mass density...
Loading historical data...
Loading historical data...
Loading historical data...
Loading historical data...
Loading historical data...
Loading historical data...
Loading historical data...

Documentation

Showing up to 5 results
|